Showing default

ABS 3A, 40424

Orbit data source: Space-Track

ABS 3A, 40424 is a payload satellite owned by ABS Global PNG (AE) in GEO that was launched on Mon, 02 Mar 2015 UTC via an FALCON 9 launch vehicle from the Air Force Eastern Test Range (AFETR). Payload-class satellites include a variety of spacecraft equipped with specific instruments for various scientific and technological missions. These include communications satellites like Starlink; space stations such as the ISS; scientific satellites like the Hubble; Earth observation satellites from companies like Planet Labs, Umbra, and HawkEye 360; GPS; miniature CubeSats for education and research; and military/defense satellites.

Not visible in the next 10 days
Identifier
40424, 2015-010A
Orbit
GEO
Country
Flag of AEAE / ABS
Related business
Manufacturer
Boeing/ES
Mission
Operational Commercial Communications
Bus & Motor
BSS-702SP, XIPS-25
Mass
1,954 kg wet, ~1,500 kg dry
Launch date (UTC)
2015-03-02 (11 years ago)
Launch vehicle
FALCON 9
Launch site
Air Force Eastern Test Range (AFETR)
Object type
Payload
Rocket body
Debris
Shape & HBR
Box + 2 Pan, 20.0 m
Radar Cross Section
33.227 m², Large (>1 m²)

Expand to show TLE details & history
Last TLE update: 5 days ago

TLE from 5 days ago
0 ABS 3A
1 40424U 15010A   26155.20798762 -.00000015  00000-0  00000-0 0  9998
2 40424   0.0123 117.8614 0001638 274.0855 292.5944  1.00269958 41245
Epoch: 2026-06-04T04:59Z
TLE epoch observation values (Epoch: 2026-06-04T04:59:30.130Z)
Latitude
0.00035°
Longitude
-3.01192°
Altitude
35,783.976 km
Speed
3.075 km/s
True Right ascension
21h 38m 04s
True Declination
0° 00' 01"
Sunlit
Object was in daylight at epoch
Visualization orbit readout
Latitude
Unknown
Longitude
Unknown
Altitude
Unknown
Speed
Unknown
Apparent Right ascension
Unknown
Apparent Declination
Unknown
Sunlit
N/A
Visualization observer readout
Local Sidereal Time
14:18:08
Azimuth
Unknown
Elevation
Unknown
Doppler factor
Unknown
Orbital elements
Apogee altitude
35,795.084 km
Perigee altitude
35,781.271 km
Semi-major axis
42,166.315 km
Eccentricity
0.00016
Inclination
0.0123°
RAAN
117.8614°
Arg. of periapsis
274.0855°
True anomaly
292.57707°
Mean anomaly
292.5944°
Eccentric anomaly
292.58573°
Mean motion
0.25067 °/min
Orbital period
1,436.18 mins
BSTAR
0
Loading maneuver chart data...
Computing Atmospheric mass density...
Loading historical data...
Loading historical data...
Loading historical data...
Loading historical data...
Loading historical data...
Loading historical data...
Loading historical data...
Other satellites on launch #10 in the year 2015 (2015-03-02 UTC)

Documentation

Showing up to 5 results
|